Airfield :
LOGIN :

Register | Disclaimer

   EN    FR    IT 

 










Legend :    VFR   Marginal VFR   IFR   Intensive IFR   Very Intensive IFR
Visi :
Ceiling :
>= 8 km
>= 3000ft
5 to 8 km
1000 to 3000 ft
1500m to 5 km
500 to 1000 ft
800 to 1500m
200 to 500 ft
< 800m
< 200 ft
Symbols :   Thunderstorms  Fog  Heavy snow  Heavy precipitations  Wind > 20 kt
SIGMETs :     Misc.  Thunderstorms  Icing  Turbulence  Mountain Waves  Volcanic Ashes







- Airport Elevation : 13 ft
- IATA code : GOA


LIMJ - Genoa Cristoforo Colombo

CURRENT METAR :
  • 192220Z VRB01KT CAVOK 23/18 Q1019

EXPIRED METARs :
  • 192150Z 01003KT 330V120 CAVOK 24/18 Q1019
  • 192120Z VRB02KT CAVOK 24/18 Q1019
  • 192050Z 01003KT 350V060 CAVOK 24/19 Q1019
  • 192020Z 02003KT CAVOK 24/20 Q1019
  • 191950Z 02003KT CAVOK 24/21 Q1019

TAF TAF LIMJ
Valid from the 19 at 18:00 until the 20 at 18:00 UTC


191700Z 1918/2018 VRB05KT CAVOK
TEMPO 2010/2014 01010KT
No reported NOTAMs for that airfield.



MET'MAP, your aeronautical weather chart ! - Copyright ORBIFLY December 2007 - Disclaimer

ORBIFLY MET'MAP TEAM :

Programming & Development : Alexandra Zaïnal
Concept & Development : Baudouin d'Aumeries
Co-Development & Prog : Marc-Olivier Méhu
Technical & hardware support : Manuel Goepfert

Contact : metmap@orbifly.com




SOURCES & CREDITS :

   NOAA